M I D A S
Marine Information and Data Acquisition System
Tripno 1711 of the Zeeleeuw from 2009-06-17 08:24:53 to 2009-06-17 18:02:55
Back to CruiseResearch ActivitiesStationsMapUnderway DataData graphs

EquipmentUnitsComment
TimeDGPSUTC
LatitudeDGPSDM.mWGS84
LongitudeDGPSDM.mWGS84
TemperatureSBE03/SBE38deg celciusITS90
ConductivitySBE21S/mITS90
SalinitySBE21 Practical Salinity Units
ChlorophylAChelsea fluorimeterg/lCalibrated in Aceton
Missing or incorrect values are displayed as -999
Sea surface data collected by the RV Zeeleeuw from 2009-06-17 08:10:31 to 2009-06-17 18:11:20
Time Latitude Longitude Temperature Conductivity Salinity ChlorophylA
2009-06-17 08:11:40 51°13.682 2°55.887 20.7542 0.259274 1.512044 2.864902
2009-06-17 08:12:40 51°13.694 2°55.797 20.7644 0.259274 1.511934 2.864902
2009-06-17 08:13:38 51°13.698 2°55.759 20.7997 0.259274 1.511851 2.864902
2009-06-17 08:14:37 51°13.705 2°55.759 20.7833 0.259274 1.511796 2.864902
2009-06-17 08:15:36 51°13.731 2°55.735 20.8138 0.259274 1.511713 2.864902
2009-06-17 08:16:36 51°13.826 2°55.642 20.7982 0.259377 1.512291 2.864902
2009-06-17 08:17:36 51°13.949 2°55.546 20.808 0.259377 1.512264 2.864902
2009-06-17 08:18:36 51°14.076 2°55.447 20.804 0.259377 1.512236 2.864902
2009-06-17 08:19:36 51°14.2 2°55.331 20.8286 0.259377 1.512126 2.864902
2009-06-17 08:20:36 51°14.307 2°55.164 20.75 0.259377 1.512043 2.864902
2009-06-17 08:21:36 51°14.406 2°54.959 20.7183 0.259377 1.512015 2.864902
2009-06-17 08:22:36 51°14.502 2°54.733 20.7849 0.259377 1.51196 2.830078
2009-06-17 08:23:36 51°14.601 2°54.484 20.7713 0.259377 1.511905 2.864902
2009-06-17 08:24:36 51°14.693 2°54.22 20.7404 0.259377 1.51185 2.864902
2009-06-17 08:25:36 51°14.766 2°53.941 20.7518 0.259377 1.511822 2.864902
2009-06-17 08:26:36 51°14.834 2°53.66 20.7586 0.259377 1.511822 2.864902
2009-06-17 08:27:36 51°14.901 2°53.375 20.7328 0.259377 1.511767 2.864902
2009-06-17 08:28:36 51°14.972 2°53.091 20.7471 0.259377 1.511739 2.864902
2009-06-17 08:29:36 51°15.033 2°52.804 20.7469 0.259377 1.511739 2.864902
2009-06-17 08:30:36 51°15.072 2°52.513 20.7833 0.259377 1.511712 2.864902
2009-06-17 08:31:36 51°15.063 2°52.218 20.7208 0.259377 1.511712 2.864902
2009-06-17 08:32:36 51°15.042 2°51.926 20.7698 0.259377 1.511739 2.864902
2009-06-17 08:33:36 51°15.025 2°51.633 20.7679 0.259377 1.511712 2.864902
2009-06-17 08:34:36 51°15.032 2°51.338 20.7821 0.259377 1.511712 2.864902
2009-06-17 08:35:36 51°15.082 2°51.049 20.7871 0.259377 1.511712 2.864902
2009-06-17 08:36:36 51°15.139 2°50.761 20.7879 0.259377 1.511712 2.830078
2009-06-17 08:37:36 51°15.192 2°50.469 20.8081 0.259377 1.511712 2.830078
2009-06-17 08:38:36 51°15.243 2°50.177 20.8077 0.259377 1.511712 2.830078
2009-06-17 08:39:36 51°15.293 2°49.885 20.8117 0.259377 1.511712 2.830078
2009-06-17 08:40:36 51°15.35 2°49.595 20.8318 0.259377 1.511712 2.830078
2009-06-17 08:41:36 51°15.402 2°49.306 20.8409 0.259377 1.511739 2.830078
2009-06-17 08:42:36 51°15.451 2°49.015 20.8351 0.259377 1.511739 2.864902
2009-06-17 08:43:36 51°15.496 2°48.724 20.8004 0.259377 1.511767 2.830078
2009-06-17 08:44:36 51°15.543 2°48.432 20.8164 0.259377 1.511739 2.830078
2009-06-17 08:45:36 51°15.618 2°48.155 20.8622 0.259377 1.511712 2.830078
2009-06-17 08:46:36 51°15.705 2°47.883 20.8459 0.259377 1.511712 2.830078
2009-06-17 08:47:36 51°15.795 2°47.611 20.8456 0.259377 1.511712 2.830078
2009-06-17 08:48:36 51°15.883 2°47.34 20.8536 0.259377 1.511684 2.830078
2009-06-17 08:49:36 51°15.969 2°47.067 20.8581 0.259377 1.511712 2.830078
2009-06-17 08:50:36 51°16.057 2°46.796 20.8494 0.259377 1.511712 2.830078
2009-06-17 08:51:36 51°16.143 2°46.524 20.8812 0.259377 1.511657 2.830078
2009-06-17 08:52:36 51°16.23 2°46.255 20.8816 0.259377 1.511684 2.830078
2009-06-17 08:53:36 51°16.316 2°45.982 20.8964 0.259377 1.511684 2.795254
2009-06-17 08:54:36 51°16.416 2°45.716 20.9106 0.259377 1.511657 2.795254
2009-06-17 08:55:36 51°16.518 2°45.449 20.9105 0.259377 1.511657 2.830078
2009-06-17 08:56:36 51°16.617 2°45.181 20.8976 0.259377 1.511629 2.830078
2009-06-17 08:57:36 51°16.721 2°44.916 20.9528 0.259377 1.511629 2.830078
2009-06-17 08:58:36 51°16.824 2°44.647 20.9455 0.259377 1.511602 2.830078
2009-06-17 08:59:36 51°16.926 2°44.377 20.9641 0.259377 1.511574 2.795254
2009-06-17 09:00:36 51°17.023 2°44.106 20.9534 0.259377 1.511546 2.830078
2009-06-17 09:01:36 51°17.121 2°43.836 20.9662 0.259377 1.511519 2.830078
2009-06-17 09:02:36 51°17.22 2°43.565 20.983 0.259377 1.511491 2.830078
2009-06-17 09:03:36 51°17.319 2°43.295 20.9736 0.259377 1.511464 2.830078
2009-06-17 09:04:36 51°17.418 2°43.025 20.9927 0.259377 1.511436 2.830078
2009-06-17 09:05:36 51°17.517 2°42.757 21.0137 0.259377 1.511409 2.830078
2009-06-17 09:06:36 51°17.617 2°42.487 21.0273 0.259377 1.511409 2.795254
2009-06-17 09:07:36 51°17.707 2°42.211 21.023 0.259377 1.511409 2.795254
2009-06-17 09:08:36 51°17.794 2°41.934 21.0258 0.259377 1.511409 2.795254
2009-06-17 09:09:36 51°17.881 2°41.656 21.0559 0.259377 1.511381 2.795254
2009-06-17 09:10:36 51°17.967 2°41.377 21.0478 0.259274 1.510748 2.795254
2009-06-17 09:11:36 51°18.05 2°41.096 21.0778 0.259377 1.511326 2.795254
2009-06-17 09:12:36 51°18.132 2°40.816 21.07 0.259377 1.511381 2.795254
2009-06-17 09:13:36 51°18.216 2°40.538 21.0787 0.259274 1.51072 2.795254
2009-06-17 09:14:36 51°18.307 2°40.267 21.0897 0.259274 1.51072 2.795254
2009-06-17 09:15:36 51°18.399 2°40.001 21.0958 0.259274 1.510693 2.76043
2009-06-17 09:16:36 51°18.493 2°39.734 21.0954 0.259274 1.510665 2.795254
2009-06-17 09:17:36 51°18.589 2°39.471 21.0981 0.259274 1.510665 2.795254
2009-06-17 09:18:36 51°18.69 2°39.207 21.1186 0.259274 1.510638 2.795254
2009-06-17 09:19:36 51°18.786 2°38.941 21.1076 0.259274 1.510638 2.795254
2009-06-17 09:20:36 51°18.877 2°38.67 21.1229 0.259274 1.51061 2.76043
2009-06-17 09:21:36 51°18.97 2°38.398 21.1569 0.259274 1.51061 2.76043
2009-06-17 09:22:36 51°19.054 2°38.117 21.1389 0.259274 1.510582 2.76043
2009-06-17 09:23:36 51°19.138 2°37.833 21.1795 0.259274 1.510582 2.76043
2009-06-17 09:24:36 51°19.223 2°37.551 21.1763 0.259274 1.510555 2.76043
2009-06-17 09:25:37 51°19.31 2°37.269 21.1676 0.259274 1.510555 2.76043
2009-06-17 09:26:36 51°19.396 2°36.996 21.1658 0.259274 1.510527 2.76043
2009-06-17 09:27:36 51°19.484 2°36.718 21.1958 0.259274 1.510555 2.76043
2009-06-17 09:28:36 51°19.556 2°36.433 21.2073 0.259274 1.5105 2.76043
2009-06-17 09:29:36 51°19.621 2°36.143 21.2296 0.259274 1.510527 2.76043
2009-06-17 09:30:36 51°19.688 2°35.854 21.1969 0.259274 1.510527 2.725606
2009-06-17 09:31:36 51°19.755 2°35.565 21.239 0.259274 1.5105 2.76043
2009-06-17 09:32:36 51°19.822 2°35.278 21.243 0.259274 1.5105 2.76043
2009-06-17 09:33:36 51°19.893 2°34.991 21.2641 0.259274 1.5105 2.725606
2009-06-17 09:34:36 51°19.965 2°34.704 21.2438 0.259274 1.5105 2.76043
2009-06-17 09:35:36 51°20.031 2°34.411 16.9396 0.259274 1.5105 4.118568
2009-06-17 09:36:36 51°20.077 2°34.159 16.1198 0.259274 1.510582 6.068715
2009-06-17 09:37:36 51°20.106 2°33.994 16.0222 0.259274 1.51061 4.606104
2009-06-17 09:38:36 51°20.124 2°33.851 15.9453 0.259274 1.510638 4.536456
2009-06-17 09:39:36 51°20.142 2°33.716 15.8972 0.259274 1.510665 4.466808
2009-06-17 09:40:36 51°20.158 2°33.601 15.8644 0.259274 1.510693 4.431984
2009-06-17 09:41:36 51°20.171 2°33.523 15.8583 0.259274 1.51072 4.57128
2009-06-17 09:42:36 51°20.181 2°33.504 15.8487 0.259274 1.510748 4.710577
2009-06-17 09:43:36 51°20.191 2°33.495 15.813 0.259274 1.510748 4.815049
2009-06-17 09:44:36 51°20.199 2°33.489 15.7877 0.259274 1.510775 4.745401
2009-06-17 09:45:36 51°20.207 2°33.484 15.7705 0.259274 1.510775 4.606104
2009-06-17 09:46:36 51°20.214 2°33.48 15.7438 0.259274 1.510748 4.606104
2009-06-17 09:47:36 51°20.216 2°33.476 15.7241 0.259274 1.510775 4.501632
2009-06-17 09:48:36 51°20.217 2°33.473 15.7209 0.259377 1.511381 4.466808
2009-06-17 09:49:36 51°20.222 2°33.473 15.7151 0.259377 1.511409 4.431984
2009-06-17 09:50:36 51°20.214 2°33.474 15.6951 0.259377 1.511353 4.327512
2009-06-17 09:51:36 51°20.192 2°33.495 15.6741 0.259377 1.511353 4.118568
2009-06-17 09:52:36 51°20.181 2°33.525 15.675 0.259377 1.511326 3.944447
2009-06-17 09:53:36 51°20.181 2°33.555 15.648 0.259377 1.511326 3.909623
2009-06-17 09:54:37 51°20.187 2°33.583 15.6392 0.259377 1.511298 3.805151
2009-06-17 09:55:36 51°20.195 2°33.608 15.6422 0.259377 1.511298 3.596207
2009-06-17 09:56:36 51°20.205 2°33.631 15.6393 0.259377 1.511271 3.561383
2009-06-17 09:57:36 51°20.216 2°33.651 15.6328 0.259377 1.511243 3.422087
2009-06-17 09:58:36 51°20.227 2°33.669 15.633 0.259377 1.511216 3.317614
2009-06-17 09:59:36 51°20.24 2°33.684 15.6302 0.259377 1.51116 3.28279
2009-06-17 10:00:36 51°20.254 2°33.698 15.6319 0.259377 1.511105 3.213142
2009-06-17 10:01:36 51°20.269 2°33.71 15.63 0.259377 1.511078 3.073846
2009-06-17 10:02:36 51°20.285 2°33.722 15.6329 0.259377 1.511023 3.10867
2009-06-17 10:03:36 51°20.301 2°33.733 15.627 0.259377 1.510968 3.073846
2009-06-17 10:04:36 51°20.317 2°33.743 15.6262 0.259377 1.510912 3.10867
2009-06-17 10:05:36 51°20.333 2°33.752 15.6284 0.259377 1.510857 3.004198
2009-06-17 10:06:36 51°20.349 2°33.761 15.6197 0.25948 1.511463 2.899726
2009-06-17 10:07:36 51°20.364 2°33.77 15.6158 0.25948 1.51138 2.93455
2009-06-17 10:08:36 51°20.38 2°33.778 15.623 0.25948 1.511325 2.864902
2009-06-17 10:09:36 51°20.395 2°33.785 15.6204 0.25948 1.51127 2.864902
2009-06-17 10:10:36 51°20.41 2°33.792 15.6251 0.25948 1.511242 2.864902
2009-06-17 10:11:36 51°20.426 2°33.797 15.6257 0.25948 1.51116 2.795254
2009-06-17 10:12:36 51°20.441 2°33.802 15.6256 0.25948 1.511132 2.795254
2009-06-17 10:13:36 51°20.455 2°33.807 15.6309 0.25948 1.511077 2.690782
2009-06-17 10:14:36 51°20.47 2°33.811 15.6393 0.25948 1.511022 2.969374
2009-06-17 10:15:36 51°20.484 2°33.813 15.6376 0.25948 1.510995 2.655957
2009-06-17 10:16:36 51°20.498 2°33.814 15.6352 0.25948 1.510939 2.655957
2009-06-17 10:17:36 51°20.512 2°33.815 15.6395 0.25948 1.510912 2.655957
2009-06-17 10:18:36 51°20.526 2°33.813 15.6326 0.259583 1.51149 2.76043
2009-06-17 10:19:36 51°20.54 2°33.811 15.633 0.259583 1.511435 2.621133
2009-06-17 10:20:36 51°20.555 2°33.814 15.6268 0.259583 1.511407 2.621133
2009-06-17 10:21:36 51°20.576 2°33.836 15.6295 0.259583 1.511352 2.621133
2009-06-17 10:22:37 51°20.559 2°33.914 15.6289 0.259583 1.511462 2.690782
2009-06-17 10:23:36 51°20.455 2°33.915 15.6183 0.259583 1.511324 3.073846
2009-06-17 10:24:36 51°20.316 2°33.83 15.6132 0.259583 1.511242 3.213142
2009-06-17 10:25:36 51°20.167 2°33.706 15.6148 0.259583 1.511187 3.28279
2009-06-17 10:26:37 51°20.068 2°33.661 15.6363 0.259583 1.511159 3.178318
2009-06-17 10:27:36 51°20.024 2°33.663 15.6546 0.259583 1.511104 2.969374
2009-06-17 10:28:37 51°20 2°33.673 15.6558 0.259686 1.511709 2.93455
2009-06-17 10:29:36 51°19.989 2°33.682 15.6607 0.259686 1.511682 2.969374
2009-06-17 10:30:36 51°19.983 2°33.685 15.6599 0.259686 1.511654 3.004198
2009-06-17 10:31:36 51°19.98 2°33.684 15.6599 0.259686 1.511599 3.039022
2009-06-17 10:32:36 51°19.985 2°33.678 15.6641 0.259686 1.511544 3.10867
2009-06-17 10:33:36 51°19.993 2°33.671 15.6623 0.259686 1.511489 3.143494
2009-06-17 10:34:36 51°20.005 2°33.664 15.6598 0.259686 1.511434 3.178318
2009-06-17 10:35:37 51°20.018 2°33.658 15.6703 0.259686 1.511406 3.039022
2009-06-17 10:36:36 51°20.032 2°33.651 15.6837 0.259686 1.511379 2.655957
2009-06-17 10:37:37 51°20.048 2°33.646 15.6874 0.259789 1.511956 2.481837
2009-06-17 10:38:36 51°20.063 2°33.643 15.7108 0.259789 1.511901 2.447013
2009-06-17 10:39:37 51°20.079 2°33.641 15.7279 0.259789 1.511846 2.481837
2009-06-17 10:40:36 51°20.095 2°33.64 15.7411 0.259789 1.511791 2.447013
2009-06-17 10:41:37 51°20.11 2°33.639 15.7558 0.259789 1.511763 2.412189
2009-06-17 10:42:36 51°20.107 2°33.594 15.7715 0.259789 1.511708 2.447013
2009-06-17 10:43:36 51°20.068 2°33.537 15.774 0.259789 1.511708 2.412189
2009-06-17 10:44:36 51°19.996 2°33.621 15.7686 0.259789 1.511543 2.481837
2009-06-17 10:45:36 51°19.899 2°33.812 15.7622 0.259892 1.512203 2.481837
2009-06-17 10:46:36 51°19.806 2°34.019 15.787 0.259892 1.512203 2.621133
2009-06-17 10:47:36 51°19.844 2°34.14 15.7897 0.259892 1.512121 2.830078
2009-06-17 10:48:36 51°19.905 2°34.104 15.8082 0.259892 1.512093 3.213142
2009-06-17 10:49:36 51°19.94 2°34.062 15.8193 0.259892 1.512066 3.456911
2009-06-17 10:50:36 51°19.964 2°34.028 15.8322 0.259892 1.51201 3.700679
2009-06-17 10:51:36 51°19.978 2°34.009 15.851 0.259892 1.511928 3.805151
2009-06-17 10:52:36 51°19.99 2°33.995 15.8567 0.259994 1.512505 3.805151
2009-06-17 10:53:37 51°20.003 2°33.981 15.8612 0.259994 1.51245 3.735503
2009-06-17 10:54:37 51°20.014 2°33.974 15.8652 0.259994 1.512422 3.665855
2009-06-17 10:55:37 51°20.026 2°33.971 15.86 0.259994 1.512395 3.700679
2009-06-17 10:56:36 51°20.036 2°33.97 15.8787 0.259994 1.51234 3.631031
2009-06-17 10:57:37 51°20.046 2°33.97 15.8889 0.259994 1.512285 3.526559
2009-06-17 10:58:36 51°20.054 2°33.971 15.892 0.259994 1.512257 3.352439
2009-06-17 10:59:37 51°20.061 2°33.972 15.8979 0.259994 1.512202 3.387263
2009-06-17 11:00:37 51°20.068 2°33.973 15.8983 0.259994 1.512202 3.317614
2009-06-17 11:01:37 51°20.073 2°33.974 15.8971 0.259994 1.512147 3.317614
2009-06-17 11:02:36 51°20.079 2°33.975 15.9023 0.260097 1.512752 3.317614
2009-06-17 11:03:37 51°20.084 2°33.974 15.9129 0.260097 1.512697 3.28279
2009-06-17 11:04:36 51°20.09 2°33.972 15.9193 0.260097 1.512669 3.247966
2009-06-17 11:05:36 51°20.096 2°33.969 15.9248 0.260097 1.512614 3.178318
2009-06-17 11:06:36 51°20.103 2°33.965 15.9351 0.260097 1.512587 3.10867
2009-06-17 11:07:37 51°20.111 2°33.96 15.9441 0.260097 1.512532 3.004198
2009-06-17 11:08:36 51°20.119 2°33.954 15.9551 0.260097 1.512504 2.899726
2009-06-17 11:09:36 51°20.128 2°33.948 15.9643 0.260097 1.512449 2.899726
2009-06-17 11:10:36 51°20.137 2°33.941 15.972 0.2602 1.513054 2.864902
2009-06-17 11:11:37 51°20.146 2°33.935 15.9788 0.2602 1.512999 2.864902
2009-06-17 11:12:36 51°20.155 2°33.927 15.9859 0.2602 1.512971 2.795254
2009-06-17 11:13:37 51°20.164 2°33.921 15.9924 0.2602 1.512916 2.76043
2009-06-17 11:14:37 51°20.172 2°33.913 16.0004 0.2602 1.512888 2.690782
2009-06-17 11:15:36 51°20.181 2°33.906 16.0092 0.2602 1.512833 2.655957
2009-06-17 11:16:37 51°20.19 2°33.897 16.0192 0.2602 1.512806 2.621133
2009-06-17 11:17:36 51°20.199 2°33.889 16.0253 0.2602 1.512751 2.586309
2009-06-17 11:18:36 51°20.207 2°33.88 16.0307 0.2602 1.512723 2.586309
2009-06-17 11:19:37 51°20.216 2°33.871 16.0378 0.260303 1.513328 2.586309
2009-06-17 11:20:37 51°20.228 2°33.856 16.045 0.260303 1.513273 2.551485
2009-06-17 11:21:36 51°20.241 2°33.815 16.0487 0.260303 1.51319 2.551485
2009-06-17 11:22:36 51°20.236 2°33.759 16.0491 0.260303 1.513135 2.586309
2009-06-17 11:23:36 51°20.22 2°33.724 16.048 0.260303 1.513108 2.586309
2009-06-17 11:24:37 51°20.206 2°33.708 16.0397 0.260303 1.51308 2.655957
2009-06-17 11:25:37 51°20.199 2°33.699 16.0392 0.260303 1.513053 2.830078
2009-06-17 11:26:36 51°20.197 2°33.69 16.0326 0.260303 1.512998 2.864902
2009-06-17 11:27:37 51°20.199 2°33.683 16.03 0.260303 1.512943 2.899726
2009-06-17 11:28:37 51°20.203 2°33.674 16.0331 0.260406 1.513492 2.969374
2009-06-17 11:29:36 51°20.21 2°33.665 16.033 0.260406 1.513437 3.039022
2009-06-17 11:30:37 51°20.219 2°33.656 16.0355 0.260406 1.513382 3.073846
2009-06-17 11:31:36 51°20.229 2°33.647 16.0317 0.260406 1.513327 3.039022
2009-06-17 11:32:36 51°20.238 2°33.636 16.0228 0.260406 1.513244 3.004198
2009-06-17 11:33:36 51°20.248 2°33.625 16.0109 0.260406 1.513189 3.073846
2009-06-17 11:34:36 51°20.258 2°33.612 16.0052 0.260406 1.513134 3.004198
2009-06-17 11:35:37 51°20.269 2°33.598 15.9973 0.260406 1.513079 3.039022
2009-06-17 11:36:37 51°20.278 2°33.608 15.9903 0.260509 1.513601 3.039022
2009-06-17 11:37:36 51°20.277 2°33.665 15.9805 0.260509 1.513601 3.004198
2009-06-17 11:38:36 51°20.273 2°33.704 15.9711 0.260509 1.513518 3.039022
2009-06-17 11:39:36 51°20.269 2°33.724 15.9786 0.260509 1.513436 2.969374
2009-06-17 11:40:37 51°20.266 2°33.733 15.9783 0.260509 1.513381 3.004198
2009-06-17 11:41:37 51°20.266 2°33.733 15.9823 0.260509 1.513298 3.004198
2009-06-17 11:42:36 51°20.262 2°33.738 15.9806 0.260509 1.513216 3.004198
2009-06-17 11:43:37 51°20.251 2°33.752 15.9879 0.260612 1.513764 3.039022
2009-06-17 11:44:37 51°20.237 2°33.77 15.9953 0.260612 1.513709 3.039022
2009-06-17 11:45:37 51°20.219 2°33.789 16.0112 0.260612 1.513654 3.004198
2009-06-17 11:46:37 51°20.198 2°33.809 16.0179 0.260612 1.513599 3.039022
2009-06-17 11:47:37 51°20.175 2°33.829 16.0266 0.260612 1.513517 3.039022
2009-06-17 11:48:36 51°20.151 2°33.845 16.0374 0.260612 1.513462 3.039022
2009-06-17 11:49:37 51°20.118 2°33.855 16.0452 0.260612 1.513435 3.039022
2009-06-17 11:50:36 51°20.082 2°33.82 16.0304 0.260612 1.51338 3.073846
2009-06-17 11:51:37 51°20.052 2°33.669 16.0302 0.260715 1.513873 3.28279
2009-06-17 11:52:37 51°20.061 2°33.401 16.0251 0.260715 1.513846 3.561383
2009-06-17 11:53:37 51°20.134 2°33.118 16.0126 0.260715 1.513818 3.770327
2009-06-17 11:54:36 51°20.26 2°32.89 16.0001 0.260715 1.513681 3.874799
2009-06-17 11:55:37 51°20.396 2°32.663 15.9751 0.260715 1.513626 3.874799
2009-06-17 11:56:37 51°20.52 2°32.431 15.9586 0.260715 1.513571 3.770327
2009-06-17 11:57:36 51°20.639 2°32.199 15.8963 0.260715 1.513516 3.456911
2009-06-17 11:58:37 51°20.744 2°31.972 15.866 0.260818 1.514147 3.28279
2009-06-17 11:59:37 51°20.771 2°31.843 15.8487 0.260818 1.514037 3.004198
2009-06-17 12:00:37 51°20.774 2°31.764 15.8484 0.260818 1.51401 3.004198
2009-06-17 12:01:36 51°20.778 2°31.717 15.858 0.260818 1.513927 3.073846
2009-06-17 12:02:37 51°20.784 2°31.683 15.8516 0.260818 1.513845 3.10867
2009-06-17 12:03:37 51°20.789 2°31.653 15.8484 0.260818 1.513762 3.10867
2009-06-17 12:04:36 51°20.792 2°31.629 15.8496 0.260818 1.513707 3.143494
2009-06-17 12:05:36 51°20.796 2°31.606 15.8468 0.260921 1.514311 3.143494
2009-06-17 12:06:37 51°20.8 2°31.587 15.8499 0.260921 1.514256 3.178318
2009-06-17 12:07:37 51°20.803 2°31.572 15.8565 0.260921 1.514146 3.10867
2009-06-17 12:08:36 51°20.805 2°31.556 15.8604 0.260921 1.514091 2.93455
2009-06-17 12:09:37 51°20.807 2°31.54 15.8639 0.260921 1.514009 2.93455
2009-06-17 12:10:36 51°20.808 2°31.525 15.8593 0.260921 1.513926 2.830078
2009-06-17 12:11:37 51°20.808 2°31.51 15.8636 0.260921 1.513844 2.864902
2009-06-17 12:12:37 51°20.808 2°31.494 15.8635 0.261024 1.514392 2.899726
2009-06-17 12:13:37 51°20.808 2°31.476 15.876 0.261024 1.514365 2.93455
2009-06-17 12:14:37 51°20.808 2°31.456 15.8863 0.261024 1.514282 2.864902
2009-06-17 12:15:36 51°20.808 2°31.436 15.8828 0.261024 1.514227 2.795254
2009-06-17 12:16:37 51°20.807 2°31.413 15.8886 0.261024 1.514145 2.795254
2009-06-17 12:17:37 51°20.807 2°31.388 15.8851 0.261024 1.51409 2.830078
2009-06-17 12:18:37 51°20.808 2°31.364 15.8857 0.261024 1.514035 2.830078
2009-06-17 12:19:36 51°20.809 2°31.343 15.878 0.261024 1.51398 2.830078
2009-06-17 12:20:37 51°20.809 2°31.319 15.8819 0.261127 1.514528 2.795254
2009-06-17 12:21:36 51°20.811 2°31.298 15.8793 0.261127 1.514501 2.76043
2009-06-17 12:22:37 51°20.812 2°31.277 15.8721 0.261127 1.514473 2.690782
2009-06-17 12:23:37 51°20.813 2°31.255 15.8708 0.261127 1.514418 2.690782
2009-06-17 12:24:36 51°20.814 2°31.23 15.8727 0.261127 1.514391 2.725606
2009-06-17 12:25:37 51°20.815 2°31.206 15.8693 0.261127 1.514336 2.655957
2009-06-17 12:26:37 51°20.817 2°31.181 15.8721 0.26123 1.514939 2.655957
2009-06-17 12:27:37 51°20.818 2°31.153 15.8624 0.26123 1.514884 2.655957
2009-06-17 12:28:37 51°20.82 2°31.125 15.864 0.26123 1.514857 2.690782
2009-06-17 12:29:37 51°20.822 2°31.101 15.8533 0.26123 1.514802 2.690782
2009-06-17 12:30:37 51°20.824 2°31.073 15.8476 0.26123 1.514802 2.621133
2009-06-17 12:31:37 51°20.826 2°31.048 15.8487 0.26123 1.514747 2.725606
2009-06-17 12:32:37 51°20.828 2°31.024 15.8433 0.26123 1.514719 2.586309
2009-06-17 12:33:37 51°20.829 2°30.999 15.8318 0.26123 1.514692 2.655957
2009-06-17 12:34:37 51°20.831 2°30.97 15.8368 0.26123 1.514664 2.655957
2009-06-17 12:35:36 51°20.832 2°30.939 15.8282 0.261333 1.515267 2.655957
2009-06-17 12:36:37 51°20.834 2°30.913 15.8199 0.261333 1.51524 2.655957
2009-06-17 12:37:36 51°20.836 2°30.885 15.8234 0.261333 1.515185 2.621133
2009-06-17 12:38:37 51°20.839 2°30.859 15.8112 0.261333 1.515157 2.621133
2009-06-17 12:39:37 51°20.841 2°30.832 15.8005 0.261333 1.51513 2.655957
2009-06-17 12:40:37 51°20.844 2°30.809 15.7743 0.261333 1.515102 2.621133
2009-06-17 12:41:37 51°20.845 2°30.788 15.7576 0.261333 1.515075 2.655957
2009-06-17 12:42:37 51°20.847 2°30.767 15.7354 0.261333 1.51502 2.655957
2009-06-17 12:43:37 51°20.847 2°30.748 15.7283 0.261435 1.515623 2.655957
2009-06-17 12:44:37 51°20.848 2°30.728 15.714 0.261435 1.515623 2.655957
2009-06-17 12:45:37 51°20.848 2°30.708 15.7045 0.261435 1.515568 2.621133
2009-06-17 12:46:37 51°20.849 2°30.688 15.6954 0.261435 1.51554 2.725606
2009-06-17 12:47:37 51°20.849 2°30.668 15.6939 0.261435 1.515513 2.655957
2009-06-17 12:48:37 51°20.849 2°30.648 15.6822 0.261435 1.515513 2.725606
2009-06-17 12:49:37 51°20.847 2°30.627 15.6812 0.261435 1.515485 2.621133
2009-06-17 12:50:37 51°20.846 2°30.605 15.6789 0.261435 1.515431 2.655957
2009-06-17 12:51:37 51°20.844 2°30.584 15.6688 0.261435 1.515403 2.621133
2009-06-17 12:52:37 51°20.843 2°30.562 15.666 0.261435 1.515376 2.621133
2009-06-17 12:53:37 51°20.841 2°30.542 15.6612 0.261538 1.515978 2.655957
2009-06-17 12:54:37 51°20.841 2°30.522 15.6539 0.261538 1.515951 2.621133
2009-06-17 12:55:36 51°20.838 2°30.502 15.6486 0.261538 1.515896 2.621133
2009-06-17 12:56:37 51°20.836 2°30.484 15.65 0.261538 1.515868 2.655957
2009-06-17 12:57:36 51°20.832 2°30.468 15.6497 0.261538 1.515841 2.655957
2009-06-17 12:58:37 51°20.827 2°30.451 15.6403 0.261538 1.515813 2.655957
2009-06-17 12:59:37 51°20.822 2°30.434 15.628 0.261538 1.515786 2.621133
2009-06-17 13:00:37 51°20.817 2°30.415 15.6239 0.261538 1.515759 2.621133
2009-06-17 13:01:37 51°20.813 2°30.396 15.6199 0.261538 1.515759 2.655957
2009-06-17 13:02:36 51°20.809 2°30.377 15.6261 0.261538 1.515704 2.655957
2009-06-17 13:03:37 51°20.805 2°30.357 15.6146 0.261641 1.516306 2.655957
2009-06-17 13:04:36 51°20.801 2°30.339 15.6187 0.261641 1.516279 2.655957
2009-06-17 13:05:37 51°20.796 2°30.321 15.6138 0.261641 1.516251 2.690782
2009-06-17 13:06:36 51°20.792 2°30.304 15.6111 0.261641 1.516224 2.655957
2009-06-17 13:07:37 51°20.786 2°30.288 15.6131 0.261641 1.516196 2.621133
2009-06-17 13:08:37 51°20.781 2°30.272 15.6065 0.261641 1.516169 2.621133
2009-06-17 13:09:37 51°20.775 2°30.257 15.6047 0.261641 1.516169 2.655957
2009-06-17 13:10:37 51°20.769 2°30.242 15.6028 0.261641 1.516114 2.690782
2009-06-17 13:11:36 51°20.763 2°30.226 15.5969 0.261641 1.516114 2.725606
2009-06-17 13:12:37 51°20.757 2°30.209 15.5947 0.261641 1.516059 2.795254
2009-06-17 13:13:37 51°20.751 2°30.193 15.5974 0.261641 1.516059 2.690782
2009-06-17 13:14:37 51°20.745 2°30.175 15.5983 0.261744 1.516661 2.690782
2009-06-17 13:15:37 51°20.74 2°30.157 15.597 0.261744 1.516634 2.655957
2009-06-17 13:16:37 51°20.734 2°30.139 15.5958 0.261744 1.516606 2.690782
2009-06-17 13:17:37 51°20.729 2°30.119 15.592 0.261744 1.516579 2.690782
2009-06-17 13:18:37 51°20.724 2°30.099 15.592 0.261744 1.516579 2.725606
2009-06-17 13:19:37 51°20.719 2°30.079 15.5925 0.261744 1.516524 2.76043
2009-06-17 13:20:37 51°20.714 2°30.058 15.5878 0.261744 1.516469 2.725606
2009-06-17 13:21:37 51°20.709 2°30.039 15.5843 0.261744 1.516442 2.690782
2009-06-17 13:22:37 51°20.703 2°30.02 15.585 0.261744 1.516387 2.725606
2009-06-17 13:23:37 51°20.696 2°30.002 15.5844 0.261744 1.516304 2.690782
2009-06-17 13:24:37 51°20.689 2°29.987 15.5852 0.261744 1.516222 2.725606
2009-06-17 13:25:37 51°20.681 2°29.971 15.5851 0.261847 1.516769 2.725606
2009-06-17 13:26:37 51°20.673 2°29.955 15.5837 0.261847 1.51666 2.690782
2009-06-17 13:27:37 51°20.665 2°29.938 15.5784 0.261847 1.516577 2.690782
2009-06-17 13:28:37 51°20.657 2°29.92 15.5755 0.261847 1.51644 2.76043
2009-06-17 13:29:36 51°20.649 2°29.901 15.5769 0.261847 1.516358 2.690782
2009-06-17 13:30:37 51°20.641 2°29.88 15.5819 0.261847 1.516193 2.725606
2009-06-17 13:31:36 51°20.633 2°29.86 15.5834 0.261847 1.516084 2.76043
2009-06-17 13:32:37 51°20.626 2°29.838 15.58 0.261847 1.515974 2.725606
2009-06-17 13:33:37 51°20.62 2°29.816 15.5792 0.261847 1.515864 2.76043
2009-06-17 13:34:37 51°20.613 2°29.793 15.5741 0.26195 1.516329 2.76043
2009-06-17 13:35:37 51°20.608 2°29.77 15.5804 0.26195 1.516219 2.76043
2009-06-17 13:36:37 51°20.602 2°29.747 15.5745 0.26195 1.516082 2.76043
2009-06-17 13:37:37 51°20.596 2°29.724 15.5695 0.26195 1.515945 2.76043
2009-06-17 13:38:37 51°20.591 2°29.701 15.5694 0.26195 1.515808 2.795254
2009-06-17 13:39:37 51°20.586 2°29.678 15.5747 0.262053 1.516273 2.795254
2009-06-17 13:40:37 51°20.581 2°29.655 15.5731 0.262053 1.516109 2.830078
2009-06-17 13:41:37 51°20.576 2°29.633 15.572 0.262053 1.516027 2.690782
2009-06-17 13:42:37 51°20.572 2°29.611 15.5775 0.262053 1.515862 2.690782
2009-06-17 13:43:37 51°20.567 2°29.589 15.5835 0.262156 1.516354 2.690782
2009-06-17 13:44:37 51°20.562 2°29.568 15.5831 0.262156 1.516244 2.725606
2009-06-17 13:45:36 51°20.556 2°29.549 15.585 0.262156 1.516108 2.655957
2009-06-17 13:46:37 51°20.549 2°29.532 15.5842 0.262156 1.515998 2.655957
2009-06-17 13:47:37 51°20.541 2°29.517 15.5856 0.262259 1.51649 2.690782
2009-06-17 13:48:37 51°20.532 2°29.504 15.5894 0.262259 1.516325 2.725606
2009-06-17 13:49:37 51°20.523 2°29.492 15.5907 0.262259 1.516216 2.621133
2009-06-17 13:50:37 51°20.514 2°29.479 15.5922 0.262259 1.516025 2.621133
2009-06-17 13:51:37 51°20.503 2°29.466 15.5917 0.262362 1.516489 2.621133
2009-06-17 13:52:37 51°20.491 2°29.453 15.5944 0.262362 1.516324 2.655957
2009-06-17 13:53:37 51°20.478 2°29.439 15.5941 0.262362 1.516106 2.655957
2009-06-17 13:54:37 51°20.466 2°29.425 15.591 0.262465 1.516597 2.655957
2009-06-17 13:55:37 51°20.454 2°29.409 15.5912 0.262465 1.516406 2.655957
2009-06-17 13:56:37 51°20.442 2°29.392 15.5956 0.262465 1.516187 2.655957
2009-06-17 13:57:37 51°20.431 2°29.374 15.5958 0.262568 1.516596 2.655957
2009-06-17 13:58:37 51°20.42 2°29.356 15.6018 0.262568 1.51635 2.690782
2009-06-17 13:59:37 51°20.409 2°29.338 15.5974 0.262568 1.516131 2.690782
2009-06-17 14:00:37 51°20.399 2°29.32 15.6011 0.262671 1.516513 2.690782
2009-06-17 14:01:37 51°20.39 2°29.302 15.6012 0.262671 1.516267 2.655957
2009-06-17 14:02:37 51°20.382 2°29.286 15.5978 0.262774 1.516649 2.76043
2009-06-17 14:03:37 51°20.381 2°29.268 15.6016 0.262774 1.516403 2.76043
2009-06-17 14:04:37 51°20.398 2°29.275 15.601 0.262774 1.516103 2.725606
2009-06-17 14:05:37 51°20.386 2°29.325 15.6032 0.262876 1.516321 2.795254
2009-06-17 14:06:37 51°20.342 2°29.396 15.5947 0.262876 1.515993 3.178318
2009-06-17 14:07:37 51°20.317 2°29.544 15.6001 0.262979 1.516402 3.352439
2009-06-17 14:08:37 51°20.318 2°29.721 15.6144 0.262979 1.516184 3.491735
2009-06-17 14:09:37 51°20.322 2°29.902 15.6479 0.263082 1.516347 3.456911
2009-06-17 14:10:37 51°20.325 2°30.127 15.6886 0.263082 1.515884 3.596207
2009-06-17 14:11:37 51°20.327 2°30.395 15.7343 0.263185 1.516183 4.014096
2009-06-17 14:12:37 51°20.309 2°30.661 15.7916 0.263185 1.515748 4.153392
2009-06-17 14:13:37 51°20.286 2°30.927 15.8559 0.263288 1.516101 4.292688
2009-06-17 14:14:37 51°20.278 2°31.2 15.9555 0.263288 1.515666 4.466808
2009-06-17 14:15:37 51°20.269 2°31.476 16.0418 0.263288 1.515503 4.640929
2009-06-17 14:16:37 51°20.246 2°31.752 16.1113 0.263391 1.515965 4.849873
2009-06-17 14:17:37 51°20.197 2°32.022 16.164 0.263391 1.515666 4.954345
2009-06-17 14:18:37 51°20.147 2°32.293 16.2513 0.263494 1.515993 5.023993
2009-06-17 14:19:37 51°20.102 2°32.566 16.3332 0.263494 1.515775 4.989169
2009-06-17 14:20:37 51°20.066 2°32.841 16.3801 0.263597 1.51621 5.058817
2009-06-17 14:21:37 51°20.031 2°33.117 16.3927 0.263597 1.515966 5.267761
2009-06-17 14:22:37 51°20 2°33.394 16.3885 0.2637 1.516373 5.372234
2009-06-17 14:23:37 51°19.985 2°33.674 16.3722 0.2637 1.516237 5.720474
2009-06-17 14:24:37 51°19.976 2°33.953 16.3674 0.2637 1.516047 6.033891
2009-06-17 14:25:37 51°19.97 2°34.23 16.346 0.263803 1.516455 6.138363
2009-06-17 14:26:37 51°19.969 2°34.508 16.3277 0.263803 1.516319 6.312483
2009-06-17 14:27:37 51°19.979 2°34.785 16.351 0.263906 1.516727 6.416955
2009-06-17 14:28:37 51°19.988 2°35.062 16.3894 0.263906 1.516591 6.451779
2009-06-17 14:29:37 51°19.997 2°35.339 16.397 0.264009 1.51708 6.591076
2009-06-17 14:30:37 51°20.007 2°35.617 16.3944 0.264009 1.516889 6.939316
2009-06-17 14:31:37 51°20.015 2°35.897 16.3754 0.264009 1.516754 7.217908
2009-06-17 14:32:37 51°20.02 2°36.178 16.3568 0.264112 1.51727 7.217908
2009-06-17 14:33:37 51°20.024 2°36.458 16.3531 0.264112 1.517161 7.357205
2009-06-17 14:34:37 51°20.045 2°36.684 16.3424 0.264112 1.51708 7.392029
2009-06-17 14:35:37 51°20.078 2°36.754 16.3343 0.264215 1.517514 7.113436
2009-06-17 14:36:37 51°20.084 2°36.795 16.3351 0.264215 1.51746 7.217908
2009-06-17 14:37:37 51°20.086 2°36.828 16.3432 0.264317 1.517894 7.322381
2009-06-17 14:38:37 51°20.089 2°36.87 16.3428 0.264317 1.517812 7.566149
2009-06-17 14:39:37 51°20.097 2°36.912 16.3453 0.264317 1.517677 7.670621
2009-06-17 14:40:37 51°20.101 2°36.928 16.3533 0.26442 1.518246 7.496501
2009-06-17 14:41:37 51°20.099 2°36.925 16.3585 0.26442 1.518111 7.635797
2009-06-17 14:42:37 51°20.095 2°36.916 16.3639 0.26442 1.517975 7.322381
2009-06-17 14:43:37 51°20.089 2°36.896 16.3767 0.264523 1.51849 7.183084
2009-06-17 14:44:37 51°20.084 2°36.873 16.3862 0.264523 1.518355 6.904492
2009-06-17 14:45:37 51°20.08 2°36.849 16.3908 0.264523 1.518246 6.6259
2009-06-17 14:46:37 51°20.076 2°36.83 16.3933 0.264626 1.518707 6.556251
2009-06-17 14:47:37 51°20.075 2°36.859 16.3969 0.264626 1.518544 6.556251
2009-06-17 14:48:37 51°20.091 2°36.913 16.4058 0.264626 1.518544 6.521427
2009-06-17 14:49:37 51°20.103 2°36.943 16.4185 0.264626 1.518354 6.242835
2009-06-17 14:50:37 51°20.109 2°36.938 16.4215 0.264729 1.518897 6.277659
2009-06-17 14:51:37 51°20.108 2°36.925 16.4271 0.264729 1.518788 6.382131
2009-06-17 14:52:37 51°20.105 2°36.908 16.4323 0.264729 1.518653 6.382131
2009-06-17 14:53:37 51°20.101 2°36.89 16.4344 0.264832 1.51914 6.173187
2009-06-17 14:54:37 51°20.095 2°36.872 16.4305 0.264832 1.519032 6.103539
2009-06-17 14:55:37 51°20.089 2°36.852 16.4412 0.264832 1.518923 6.033891
2009-06-17 14:56:37 51°20.083 2°36.835 16.4454 0.264832 1.518788 5.824946
2009-06-17 14:57:37 51°20.081 2°36.859 16.4503 0.264935 1.519194 5.51153
2009-06-17 14:58:37 51°20.097 2°36.921 16.459 0.264935 1.519194 5.441882
2009-06-17 14:59:37 51°20.101 2°36.945 16.4573 0.264935 1.519113 5.302586
2009-06-17 15:00:37 51°20.096 2°36.924 16.4546 0.265038 1.519573 5.441882
2009-06-17 15:01:37 51°20.091 2°36.903 16.4545 0.265038 1.519411 5.581178
2009-06-17 15:02:37 51°20.086 2°36.883 16.4521 0.265038 1.519329 5.650826
2009-06-17 15:03:37 51°20.082 2°36.865 16.4504 0.265038 1.519221 5.720474
2009-06-17 15:04:37 51°20.078 2°36.849 16.4548 0.265141 1.519708 5.68565
2009-06-17 15:05:36 51°20.064 2°36.857 16.4589 0.265141 1.519627 5.790122
2009-06-17 15:06:37 51°20 2°36.833 16.4583 0.265141 1.5196 5.85977
2009-06-17 15:07:37 51°19.96 2°36.646 16.4637 0.265141 1.519356 5.755298
2009-06-17 15:08:37 51°19.934 2°36.346 16.4667 0.265244 1.519844 6.103539
2009-06-17 15:09:37 51°19.913 2°36.006 16.4616 0.265244 1.519762 6.695548
2009-06-17 15:10:37 51°19.896 2°35.662 16.4638 0.265244 1.519681 6.730372
2009-06-17 15:11:37 51°19.877 2°35.318 16.4501 0.265244 1.519573 6.695548
2009-06-17 15:12:36 51°19.862 2°34.981 16.4472 0.265347 1.52006 6.695548
2009-06-17 15:13:37 51°19.855 2°34.63 16.4173 0.265347 1.519979 6.660724
2009-06-17 15:14:36 51°19.845 2°34.289 16.4049 0.265347 1.51987 6.730372
2009-06-17 15:15:37 51°19.836 2°33.936 16.3933 0.265347 1.519762 6.80002
2009-06-17 15:16:37 51°19.83 2°33.59 16.3945 0.26545 1.520276 6.834844
2009-06-17 15:17:37 51°19.82 2°33.258 16.4016 0.26545 1.520168 7.183084
2009-06-17 15:18:37 51°19.798 2°33.03 16.4268 0.26545 1.520059 7.183084
2009-06-17 15:19:37 51°19.773 2°32.917 16.4431 0.265553 1.520546 7.14826
2009-06-17 15:20:37 51°19.745 2°32.859 16.4626 0.265553 1.520438 7.392029
2009-06-17 15:21:37 51°19.722 2°32.801 16.4669 0.265553 1.520384 7.496501
2009-06-17 15:22:37 51°19.708 2°32.745 16.4924 0.265656 1.520871 7.809917
2009-06-17 15:23:37 51°19.702 2°32.692 16.4998 0.265656 1.520762 7.531325
2009-06-17 15:24:37 51°19.702 2°32.645 16.5011 0.265656 1.520654 7.531325
2009-06-17 15:25:37 51°19.702 2°32.606 16.5132 0.265656 1.520519 7.635797
2009-06-17 15:26:37 51°19.703 2°32.571 16.5019 0.265759 1.52106 7.531325
2009-06-17 15:27:37 51°19.703 2°32.541 16.5002 0.265759 1.520951 7.775093
2009-06-17 15:28:37 51°19.704 2°32.516 16.5034 0.265759 1.520843 7.984038
2009-06-17 15:29:37 51°19.704 2°32.495 16.5151 0.265759 1.520735 7.566149
2009-06-17 15:30:36 51°19.701 2°32.476 16.5299 0.265861 1.521248 7.008964
2009-06-17 15:31:37 51°19.698 2°32.458 16.5506 0.265861 1.52114 6.416955
2009-06-17 15:32:36 51°19.695 2°32.442 16.561 0.265861 1.521005 5.546354
2009-06-17 15:33:37 51°19.692 2°32.425 16.5649 0.265861 1.520897 5.198113
2009-06-17 15:34:37 51°19.687 2°32.409 16.568 0.265964 1.521383 5.267761
2009-06-17 15:35:37 51°19.682 2°32.393 16.5715 0.265964 1.521248 5.33741
2009-06-17 15:36:37 51°19.678 2°32.376 16.5746 0.265964 1.521113 5.372234
2009-06-17 15:37:37 51°19.704 2°32.389 16.5856 0.265964 1.521058 5.163289
2009-06-17 15:38:37 51°19.714 2°32.487 16.5817 0.265964 1.520842 5.232937
2009-06-17 15:39:37 51°19.72 2°32.598 16.5722 0.266067 1.521301 6.033891
2009-06-17 15:40:37 51°19.727 2°32.645 16.5549 0.266067 1.521166 6.173187
2009-06-17 15:41:37 51°19.736 2°32.666 16.5495 0.266067 1.521031 6.486603
2009-06-17 15:42:37 51°19.746 2°32.675 16.5508 0.266067 1.520869 6.556251
2009-06-17 15:43:37 51°19.755 2°32.675 16.5419 0.26617 1.521382 6.556251
2009-06-17 15:44:37 51°19.764 2°32.669 16.5383 0.26617 1.521247 6.347307
2009-06-17 15:45:37 51°19.77 2°32.662 16.5337 0.26617 1.521085 6.173187
2009-06-17 15:46:37 51°19.776 2°32.653 16.5328 0.26617 1.52095 5.999067
2009-06-17 15:47:37 51°19.782 2°32.641 16.5395 0.266273 1.521436 5.85977
2009-06-17 15:48:37 51°19.788 2°32.628 16.5465 0.266273 1.521327 5.790122
2009-06-17 15:49:37 51°19.792 2°32.613 16.5534 0.266273 1.521138 5.68565
2009-06-17 15:50:37 51°19.795 2°32.598 16.5619 0.266376 1.521651 5.546354
2009-06-17 15:51:37 51°19.797 2°32.582 16.5661 0.266376 1.521543 5.372234
2009-06-17 15:52:37 51°19.798 2°32.568 16.5745 0.266376 1.521435 5.33741
2009-06-17 15:53:37 51°19.799 2°32.555 16.5717 0.266479 1.521948 5.163289
2009-06-17 15:54:37 51°19.8 2°32.543 16.5709 0.266479 1.52184 5.163289
2009-06-17 15:55:37 51°19.8 2°32.534 16.5745 0.266479 1.521732 5.093641
2009-06-17 15:56:37 51°19.8 2°32.526 16.5769 0.266582 1.522271 4.989169
2009-06-17 15:57:37 51°19.799 2°32.518 16.5805 0.266582 1.52219 4.919521
2009-06-17 15:58:37 51°19.797 2°32.51 16.5835 0.266582 1.522082 4.884697
2009-06-17 15:59:37 51°19.796 2°32.504 16.5844 0.266685 1.522622 4.884697
2009-06-17 16:00:37 51°19.794 2°32.496 16.5824 0.266685 1.522514 4.954345
2009-06-17 16:01:37 51°19.792 2°32.49 16.5842 0.266685 1.52246 4.849873
2009-06-17 16:02:37 51°19.791 2°32.484 16.5847 0.266685 1.522379 4.780225
2009-06-17 16:03:37 51°19.788 2°32.479 16.5837 0.266788 1.522891 4.780225
2009-06-17 16:04:37 51°19.787 2°32.474 16.5846 0.266788 1.522837 4.640929
2009-06-17 16:05:37 51°19.785 2°32.47 16.5859 0.266788 1.522729 4.640929
2009-06-17 16:06:37 51°19.784 2°32.466 16.5878 0.266891 1.523269 4.675753
2009-06-17 16:07:37 51°19.782 2°32.463 16.5846 0.266891 1.523215 4.640929
2009-06-17 16:08:37 51°19.781 2°32.459 16.5807 0.266891 1.523161 4.606104
2009-06-17 16:09:37 51°19.78 2°32.456 16.5785 0.266891 1.52308 4.536456
2009-06-17 16:10:37 51°19.778 2°32.453 16.5739 0.266994 1.523619 4.536456
2009-06-17 16:11:37 51°19.776 2°32.451 16.5791 0.266994 1.523565 4.466808
2009-06-17 16:12:37 51°19.775 2°32.448 16.5795 0.266994 1.523484 4.466808
2009-06-17 16:13:37 51°19.773 2°32.446 16.5798 0.267097 1.524023 4.501632
2009-06-17 16:14:37 51°19.771 2°32.444 16.5781 0.267097 1.523969 4.536456
2009-06-17 16:15:37 51°19.77 2°32.443 16.5798 0.267097 1.523915 4.466808
2009-06-17 16:16:37 51°19.768 2°32.441 16.5812 0.267097 1.523834 4.466808
2009-06-17 16:17:37 51°19.767 2°32.44 16.5815 0.2672 1.5244 4.466808
2009-06-17 16:18:37 51°19.767 2°32.439 16.5793 0.2672 1.524346 4.57128
2009-06-17 16:19:37 51°19.766 2°32.438 16.5818 0.2672 1.524265 4.501632
2009-06-17 16:20:37 51°19.766 2°32.439 16.5796 0.2672 1.524211 4.431984
2009-06-17 16:21:37 51°19.766 2°32.439 16.5832 0.267303 1.524777 4.431984
2009-06-17 16:22:37 51°19.766 2°32.439 16.5861 0.267303 1.524696 4.466808
2009-06-17 16:23:37 51°19.766 2°32.44 16.5799 0.267302 1.524669 4.431984
2009-06-17 16:24:37 51°19.767 2°32.441 16.5823 0.267302 1.524588 4.431984
2009-06-17 16:25:36 51°19.769 2°32.444 16.5822 0.267405 1.525181 4.431984
2009-06-17 16:26:36 51°19.77 2°32.445 16.5815 0.267405 1.5251 4.466808
2009-06-17 16:27:37 51°19.771 2°32.448 16.5793 0.267405 1.525019 4.39716
2009-06-17 16:28:36 51°19.772 2°32.45 16.58 0.267405 1.524965 4.431984
2009-06-17 16:29:37 51°19.773 2°32.453 16.5807 0.267508 1.525558 4.431984
2009-06-17 16:30:37 51°19.774 2°32.456 16.583 0.267508 1.525504 4.431984
2009-06-17 16:31:37 51°19.776 2°32.46 16.5807 0.267508 1.525422 4.431984
2009-06-17 16:32:37 51°19.778 2°32.464 16.5768 0.267508 1.525341 4.431984
2009-06-17 16:33:37 51°19.779 2°32.468 16.5738 0.267611 1.525934 4.39716
2009-06-17 16:34:37 51°19.781 2°32.472 16.5767 0.267611 1.525907 4.39716
2009-06-17 16:35:37 51°19.783 2°32.477 16.5732 0.267611 1.525826 4.327512
2009-06-17 16:36:37 51°19.785 2°32.483 16.5713 0.267611 1.525826 4.362336
2009-06-17 16:37:37 51°19.787 2°32.489 16.5628 0.267611 1.525772 4.39716
2009-06-17 16:38:37 51°19.789 2°32.496 16.5547 0.267714 1.526338 4.39716
2009-06-17 16:39:36 51°19.792 2°32.503 16.5495 0.267714 1.526257 4.362336
2009-06-17 16:40:37 51°19.812 2°32.511 16.5514 0.267714 1.526203 4.362336
2009-06-17 16:41:37 51°19.86 2°32.574 16.5465 0.267714 1.526203 4.39716
2009-06-17 16:42:37 51°19.847 2°32.711 16.549 0.267817 1.526714 4.675753
2009-06-17 16:43:37 51°19.792 2°32.933 16.5559 0.267817 1.52666 5.33741
2009-06-17 16:44:37 51°19.707 2°33.164 16.5331 0.267817 1.526633 5.755298
2009-06-17 16:45:37 51°19.584 2°33.398 16.5096 0.267817 1.526552 6.869668
2009-06-17 16:46:37 51°19.457 2°33.632 16.4606 0.26792 1.527172 6.939316
2009-06-17 16:47:37 51°19.33 2°33.869 16.4271 0.26792 1.527145 7.252733
2009-06-17 16:48:36 51°19.21 2°34.102 16.37 0.26792 1.527091 7.531325
2009-06-17 16:49:37 51°19.084 2°34.342 16.3292 0.26792 1.527091 7.670621
2009-06-17 16:50:36 51°18.96 2°34.57 16.3404 0.26792 1.527037 7.809917
2009-06-17 16:51:37 51°18.835 2°34.809 16.3971 0.268023 1.527602 7.775093
2009-06-17 16:52:37 51°18.713 2°35.047 16.4402 0.268023 1.527548 7.287557
2009-06-17 16:53:37 51°18.591 2°35.282 16.4895 0.268023 1.527494 6.97414
2009-06-17 16:54:37 51°18.469 2°35.517 16.5467 0.268023 1.52744 6.80002
2009-06-17 16:55:37 51°18.345 2°35.755 16.5679 0.268023 1.527386 6.80002
2009-06-17 16:56:37 51°18.219 2°35.993 16.5132 0.268126 1.527951 7.043788
2009-06-17 16:57:37 51°18.105 2°36.244 16.4522 0.268126 1.527897 7.775093
2009-06-17 16:58:37 51°18.056 2°36.542 16.407 0.268126 1.527816 8.43675
2009-06-17 16:59:37 51°18.05 2°36.854 16.3924 0.268126 1.527816 8.506398
2009-06-17 17:00:37 51°18.035 2°37.165 16.3687 0.268126 1.527789 8.401926
2009-06-17 17:01:37 51°18.022 2°37.478 16.3416 0.268126 1.527708 8.576047
2009-06-17 17:02:37 51°18.009 2°37.794 16.3607 0.268229 1.528246 8.819815
2009-06-17 17:03:37 51°17.998 2°38.112 16.4139 0.268229 1.528219 8.819815
2009-06-17 17:04:37 51°17.989 2°38.432 16.4675 0.268229 1.528165 8.750167
2009-06-17 17:05:37 51°17.967 2°38.751 16.5016 0.268229 1.528111 8.819815
2009-06-17 17:06:37 51°17.942 2°39.066 16.5435 0.268229 1.52803 8.924287
2009-06-17 17:07:37 51°17.91 2°39.38 16.554 0.268332 1.528595 8.819815
2009-06-17 17:08:37 51°17.861 2°39.69 16.5326 0.268332 1.528568 8.715343
2009-06-17 17:09:37 51°17.811 2°40.005 16.4977 0.268332 1.528487 8.645695
2009-06-17 17:10:37 51°17.759 2°40.318 16.4662 0.268332 1.528433 8.43675
2009-06-17 17:11:37 51°17.704 2°40.63 16.4589 0.268332 1.528406 8.401926
2009-06-17 17:12:37 51°17.655 2°40.941 16.4788 0.268332 1.528352 8.192982
2009-06-17 17:13:37 51°17.608 2°41.252 16.5688 0.268435 1.528944 7.740269
2009-06-17 17:14:37 51°17.563 2°41.564 16.6174 0.268435 1.528863 7.183084
2009-06-17 17:15:37 51°17.521 2°41.879 16.652 0.268435 1.528836 6.80002
2009-06-17 17:16:37 51°17.479 2°42.193 16.682 0.268435 1.528782 6.556251
2009-06-17 17:17:37 51°17.419 2°42.498 16.6622 0.268435 1.528755 6.486603
2009-06-17 17:18:37 51°17.339 2°42.794 16.6095 0.268538 1.529266 6.416955
2009-06-17 17:19:37 51°17.256 2°43.09 16.5138 0.268538 1.529239 6.416955
2009-06-17 17:20:37 51°17.175 2°43.383 16.478 0.268538 1.529185 6.556251
2009-06-17 17:21:37 51°17.094 2°43.67 16.5618 0.268538 1.529158 6.591076
2009-06-17 17:22:37 51°17.015 2°43.96 16.6132 0.268538 1.529158 6.521427
2009-06-17 17:23:37 51°16.933 2°44.249 16.6491 0.268538 1.529104 6.6259
2009-06-17 17:24:37 51°16.839 2°44.529 16.6796 0.268641 1.529723 6.765196
2009-06-17 17:25:37 51°16.743 2°44.807 16.6837 0.268641 1.529587 6.869668
2009-06-17 17:26:37 51°16.648 2°45.086 16.6601 0.268641 1.529587 7.043788
2009-06-17 17:27:37 51°16.556 2°45.366 16.5786 0.268641 1.529587 7.217908
2009-06-17 17:28:37 51°16.467 2°45.647 16.5684 0.268641 1.529533 7.531325
2009-06-17 17:29:37 51°16.378 2°45.931 16.5406 0.268744 1.530152 7.949214
2009-06-17 17:30:37 51°16.305 2°46.228 16.527 0.268744 1.530071 8.192982
2009-06-17 17:31:37 51°16.239 2°46.533 16.5251 0.268744 1.52999 8.506398
2009-06-17 17:32:37 51°16.176 2°46.843 16.6005 0.268744 1.529936 8.715343
2009-06-17 17:33:37 51°16.113 2°47.153 16.6773 0.268744 1.529963 9.133231
2009-06-17 17:34:37 51°16.048 2°47.463 16.7845 0.268744 1.529828 9.377
2009-06-17 17:35:37 51°15.986 2°47.777 16.9059 0.268744 1.52972 9.411824
2009-06-17 17:36:37 51°15.925 2°48.09 17.0114 0.268744 1.529585 9.446648
2009-06-17 17:37:37 51°15.864 2°48.402 17.0765 0.268744 1.529477 9.377
2009-06-17 17:38:37 51°15.811 2°48.716 17.1201 0.268641 1.528723 10.038657
2009-06-17 17:39:37 51°15.764 2°49.033 17.1388 0.268641 1.528615 10.83961
2009-06-17 17:40:37 51°15.714 2°49.351 17.1543 0.268641 1.52848 11.745035
2009-06-17 17:41:37 51°15.662 2°49.668 17.1848 0.268641 1.528345 12.476341
2009-06-17 17:42:37 51°15.613 2°49.988 17.2182 0.268538 1.527565 12.650461
2009-06-17 17:43:37 51°15.569 2°50.31 17.2531 0.268538 1.52743 12.1281
2009-06-17 17:44:37 51°15.523 2°50.632 17.3326 0.268435 1.526597 10.700314
2009-06-17 17:45:37 51°15.474 2°50.952 17.405 0.268435 1.526381 9.969009
2009-06-17 17:46:37 51°15.413 2°51.264 17.446 0.268435 1.526139 9.446648
2009-06-17 17:47:37 51°15.343 2°51.571 17.4767 0.268435 1.52587 9.272528
2009-06-17 17:48:37 51°15.275 2°51.879 17.4853 0.268332 1.524929 9.585944
2009-06-17 17:49:37 51°15.199 2°52.18 17.4763 0.268332 1.524634 10.073481
2009-06-17 17:50:37 51°15.122 2°52.48 17.4594 0.268332 1.524284 10.49137
2009-06-17 17:51:37 51°15.048 2°52.784 17.437 0.268332 1.523908 10.769962
2009-06-17 17:52:37 51°14.975 2°53.091 17.4181 0.268332 1.523533 10.83961
2009-06-17 17:53:37 51°14.902 2°53.402 17.4035 0.268332 1.523238 11.01373
2009-06-17 17:54:37 51°14.823 2°53.707 17.7648 0.268332 1.522889 2.168421
2009-06-17 17:55:37 51°14.74 2°54.01 17.8384 0.268332 1.522595 2.029124
2009-06-17 17:56:37 51°14.654 2°54.308 17.9457 0.268332 1.522273 1.9943
2009-06-17 17:57:37 51°14.563 2°54.601 18.0293 0.268435 1.522622 1.924652
2009-06-17 17:58:37 51°14.457 2°54.876 18.0923 0.268435 1.522461 1.924652
2009-06-17 17:59:37 51°14.337 2°55.129 18.1586 0.268435 1.522247 1.924652
2009-06-17 18:00:37 51°14.218 2°55.313 18.2297 0.268538 1.522649 1.924652
2009-06-17 18:01:37 51°14.092 2°55.431 18.295 0.268538 1.522569 1.924652
2009-06-17 18:02:41 51°13.955 2°55.532 18.3531 0.26864 1.522945 1.924652
2009-06-17 18:03:40 51°13.838 2°55.621 18.4121 0.26864 1.522784 1.924652
2009-06-17 18:04:41 51°13.753 2°55.722 18.4636 0.26864 1.522597 1.924652
2009-06-17 18:05:41 51°13.7 2°55.822 18.4812 0.268743 1.523133 1.924652
2009-06-17 18:06:40 51°13.673 2°55.904 18.558 0.268846 1.523615 1.924652
2009-06-17 18:07:41 51°13.665 2°55.951 18.6596 0.268846 1.523561 1.924652
2009-06-17 18:08:40 51°13.662 2°55.959 18.7648 0.268949 1.524097 1.924652
2009-06-17 18:09:40 51°13.662 2°55.959 18.8382 0.268949 1.52391 1.889828
2009-06-17 18:10:40 51°13.662 2°55.959 18.868 0.269052 1.524419 1.924652